Kecskemet, Hungary

2:28 PM CET on February 22, 2017 (GMT +0100)
Kecskemet

Weather History for LHKE - December, 2012

Change the Weather History Date:

Thursday, December 27, 2012

  Actual Average (LHBP) Record (LHBP)
Temperature  
Mean Temperature 44 °F -  
Max Temperature 48 °F 32 °F 51 °F (2013)
Min Temperature 39 °F 21 °F 1 °F (2010)
Degree Days  
Heating Degree Days 22    
Moisture  
Dew Point 40 °F    
Average Humidity 94    
Maximum Humidity 100    
Minimum Humidity 71    
Precipitation  
Precipitation 0.00 in - - ()
Sea Level Pressure  
Sea Level Pressure 30.02 in    
Wind  
Wind Speed 8 mph ()    
Max Wind Speed 13 mph    
Max Gust Speed -    
Visibility 4.0 miles    
Events Fog    
Averages and records for this station are not official NWS values.
T = Trace of Precipitation, MM = Missing Value Source: Averaged Metar Reports

Daily Weather History Graph

Daily Weather History Graph

Search for Another Location

Airport or City:

Trip Planner

Search our weather history database for the weather conditions in past years. The results will help you decide how hot, cold, wet, or windy it might be!

Date:

Astronomy

Dec. 27, 2012 Rise Set
Actual Time 7:25 AM CET 3:58 PM CET
Civil Twilight 6:50 AM CET 4:34 PM CET
Nautical Twilight 6:11 AM CET 5:12 PM CET
Astronomical Twilight 5:34 AM CET 5:49 PM CET
Moon 3:28 PM CET (12/27) 6:21 AM CET (12/27)
Length of Visible Light 9h 43m
Length of Day
8h 32m
Waxing Gibbous, 99% of the Moon is Illuminated
Dec 27
Waxing Gibbous
Dec 28
Full
Jan 5
Last Quarter
Jan 11
New
Jan 19
First Quarter

Hourly Weather History & Observations

Time (CET) Temp. Windchill Dew Point Humidity Pressure Visibility Wind Dir Wind Speed Gust Speed Precip Events Conditions
12:15 AM 42.8 °F 40.2 °F 41.0 °F 93% 30.04 in 3.1 mi West 4.5 mph - N/A   Mostly Cloudy
12:45 AM 41.0 °F 36.5 °F 41.0 °F 100% 30.04 in 3.7 mi West 6.7 mph - N/A   Unknown
1:15 AM 41.0 °F 36.5 °F 41.0 °F 100% 30.04 in 3.7 mi West 6.7 mph - N/A   Unknown
1:45 AM 41.0 °F 35.4 °F 41.0 °F 100% 30.04 in 3.7 mi West 8.9 mph - N/A   Unknown
2:15 AM 41.0 °F 36.5 °F 39.2 °F 93% 30.04 in 5.0 mi West 6.7 mph - N/A   Unknown
2:45 AM 41.0 °F 36.5 °F 39.2 °F 93% 30.04 in 5.0 mi West 6.7 mph - N/A   Unknown
3:15 AM 39.2 °F 34.4 °F 37.4 °F 93% 30.04 in 5.0 mi West 6.7 mph - N/A   Unknown
3:45 AM 39.2 °F 34.4 °F 37.4 °F 93% 30.06 in 5.0 mi West 6.7 mph - N/A   Unknown
4:15 AM 39.2 °F 34.4 °F 37.4 °F 93% 30.06 in 5.0 mi West 6.7 mph - N/A   Unknown
4:45 AM 41.0 °F 34.4 °F 41.0 °F 100% 30.06 in 5.0 mi West 11.2 mph - N/A   Unknown
4:58 AM 39.2 °F 32.2 °F 39.2 °F 100% 30.06 in 3.1 mi West 11.2 mph - N/A   Scattered Clouds
5:15 AM 39.2 °F 32.2 °F 39.2 °F 100% 30.06 in 1.9 mi West 11.2 mph - N/A   Mostly Cloudy
5:23 AM 39.2 °F 31.3 °F 39.2 °F 100% 30.09 in 0.9 mi West 13.4 mph - N/A   Mostly Cloudy
5:43 AM 39.2 °F 32.2 °F 39.2 °F 100% 30.09 in 0.5 mi West 11.2 mph - N/A Fog Fog
5:45 AM - - - N/A% - 3.1 mi West 11.2 mph - N/A   Overcast
5:55 AM 39.2 °F 32.2 °F 39.2 °F 100% 30.09 in 0.4 mi West 11.2 mph - N/A Fog Fog
6:05 AM 39.2 °F 32.2 °F 39.2 °F 100% 30.09 in 0.9 mi West 11.2 mph - N/A   Mostly Cloudy
6:15 AM 41.0 °F 34.4 °F 41.0 °F 100% 30.09 in 3.1 mi West 11.2 mph - N/A   Mostly Cloudy
6:45 AM 41.0 °F 33.6 °F 41.0 °F 100% 30.09 in 6.2 mi West 13.4 mph - N/A   Mostly Cloudy
7:15 AM 41.0 °F 33.6 °F 41.0 °F 100% 30.09 in 6.2 mi West 13.4 mph - N/A   Overcast
7:45 AM 41.0 °F 34.4 °F 41.0 °F 100% 30.09 in 6.2 mi West 11.2 mph - N/A   Overcast
8:15 AM 42.8 °F 37.6 °F 41.0 °F 93% 30.09 in 6.2 mi WSW 8.9 mph - N/A   Mostly Cloudy
8:45 AM - - - N/A% - 6.2 mi SW 8.9 mph - N/A   Mostly Cloudy
9:15 AM 42.8 °F 37.6 °F 41.0 °F 93% 30.09 in 6.2 mi SW 8.9 mph - N/A   Partly Cloudy
9:45 AM 44.6 °F 39.8 °F 41.0 °F 87% 30.09 in 6.2 mi SW 8.9 mph - N/A   Partly Cloudy
10:15 AM 44.6 °F 38.9 °F 41.0 °F 87% 30.09 in 6.2 mi WSW 11.2 mph - N/A   Partly Cloudy
10:45 AM 46.4 °F 41.2 °F 41.0 °F 81% 30.06 in 6.2 mi SW 11.2 mph - N/A   Partly Cloudy
11:45 AM - - - N/A% - 6.2 mi SW 11.2 mph - N/A   Mostly Cloudy
12:15 PM 48.2 °F - 41.0 °F 76% 30.04 in 6.2 mi SW 11.2 mph - N/A   Partly Cloudy
12:45 PM 48.2 °F - 41.0 °F 76% 30.04 in 6.2 mi SW 8.9 mph - N/A   Scattered Clouds
1:15 PM 48.2 °F - 41.0 °F 76% 30.04 in 6.2 mi SW 11.2 mph - N/A   Scattered Clouds
1:45 PM 48.2 °F - 41.0 °F 76% 30.01 in 6.2 mi SW 11.2 mph - N/A   Scattered Clouds
2:15 PM 48.2 °F - 41.0 °F 76% 30.01 in - SSW 8.9 mph - N/A   Clear
2:45 PM - - - N/A% - 5.0 mi SSW 11.2 mph - N/A   Overcast
3:15 PM 48.2 °F - 39.2 °F 71% 30.01 in - SW 8.9 mph - N/A   Clear
3:45 PM 44.6 °F 39.8 °F 39.2 °F 81% 29.98 in - SW 8.9 mph - N/A   Clear
4:15 PM 44.6 °F 42.3 °F 39.2 °F 81% 29.98 in - South 4.5 mph - N/A   Clear
4:45 PM 42.8 °F 38.7 °F 39.2 °F 87% 29.98 in - South 6.7 mph - N/A   Clear
5:15 PM 41.0 °F 38.1 °F 39.2 °F 93% 29.98 in - SSE 4.5 mph - N/A   Clear
5:45 PM - - - N/A% - 5.0 mi South 6.7 mph - N/A   Overcast
6:15 PM 39.2 °F 34.4 °F 37.4 °F 93% 29.95 in - SSE 6.7 mph - N/A   Clear
6:45 PM 39.2 °F 34.4 °F 39.2 °F 100% 29.95 in - SSE 6.7 mph - N/A   Clear
7:00 PM - - - N/A% - 2.5 mi SSE 6.7 mph - N/A   Overcast
7:15 PM 39.2 °F 33.1 °F 39.2 °F 100% 29.95 in 5.0 mi SE 8.9 mph - N/A   Mostly Cloudy
7:27 PM 39.2 °F 34.4 °F 39.2 °F 100% 29.95 in 3.7 mi SSE 6.7 mph - N/A   Mostly Cloudy
7:32 PM 39.2 °F 34.4 °F 39.2 °F 100% 29.95 in 3.1 mi SSE 6.7 mph - N/A   Mostly Cloudy
7:45 PM 39.2 °F 33.1 °F 39.2 °F 100% 29.95 in 2.5 mi SSE 8.9 mph - N/A   Mostly Cloudy
7:57 PM 41.0 °F 34.4 °F 41.0 °F 100% 29.95 in 1.9 mi SSE 11.2 mph - N/A   Mostly Cloudy
8:15 PM 39.2 °F 31.3 °F 39.2 °F 100% 29.92 in 1.6 mi SSE 13.4 mph - N/A   Mostly Cloudy
8:45 PM - - - N/A% - 1.9 mi SSE 6.7 mph - N/A   Overcast
9:15 PM 41.0 °F 34.4 °F 41.0 °F 100% 29.92 in 1.6 mi South 11.2 mph - N/A   Overcast
10:02 PM 39.2 °F 34.4 °F 39.2 °F 100% 29.92 in 1.9 mi South 6.7 mph - N/A   Mostly Cloudy
10:15 PM 39.2 °F 33.1 °F 39.2 °F 100% 29.92 in 2.2 mi South 8.9 mph - N/A   Mostly Cloudy
10:45 PM 39.2 °F 33.1 °F 39.2 °F 100% 29.92 in 2.5 mi South 8.9 mph - N/A   Mostly Cloudy
11:15 PM 39.2 °F 34.4 °F 39.2 °F 100% 29.92 in 2.5 mi South 6.7 mph - N/A   Mostly Cloudy
11:26 PM 39.2 °F 33.1 °F 39.2 °F 100% 29.92 in 3.1 mi South 8.9 mph - N/A   Mostly Cloudy
11:45 PM - - - N/A% - 3.1 mi North - - N/A   Overcast